This is the latest recevied weather packets stored in our database for station/object KC9DNQ-3. If no packets are shown the sender has not sent any weather packets the latest 1 day(s).
| Time | Temp. | Humidity | Pressure | Rain* | Wind** | Luminosity | Snow |
|---|---|---|---|---|---|---|---|
| 1778031009 | 11.11° C | 56% | 1008.1 hPa | 0 mm | 0 m/s | 0 W/m² | - |
| 1778030708 | 11.11° C | 56% | 1008 hPa | 0 mm | 0 m/s | 0 W/m² | - |
| 1778030410 | 11.11° C | 55% | 1008.1 hPa | 0 mm | 0 m/s | 0 W/m² | - |
| 1778030108 | 11.67° C | 54% | 1008 hPa | 0 mm | 0.45 m/s, 296° | 0 W/m² | - |
| 1778029809 | 11.67° C | 53% | 1008 hPa | 0 mm | 0.89 m/s, 296° | 0 W/m² | - |
| 1778029508 | 11.67° C | 52% | 1008 hPa | 0 mm | 0.45 m/s, 296° | 0 W/m² | - |
| 1778029208 | 11.67° C | 53% | 1007.7 hPa | 0 mm | 0.45 m/s, 296° | 0 W/m² | - |
| 1778028909 | 11.67° C | 52% | 1007.7 hPa | 0 mm | 0.89 m/s, 296° | 0 W/m² | - |
| 1778028608 | 11.67° C | 52% | 1007.7 hPa | 0 mm | 0.45 m/s, 296° | 0 W/m² | - |
| 1778028308 | 11.67° C | 52% | 1007.7 hPa | 0 mm | 0.89 m/s, 296° | 0 W/m² | - |
| 1778028009 | 11.67° C | 50% | 1007.7 hPa | 0 mm | 0.45 m/s, 296° | 0 W/m² | - |
| 1778027708 | 11.67° C | 50% | 1007.6 hPa | 0 mm | 0.45 m/s, 296° | 5 W/m² | - |
| 1778027408 | 11.67° C | 49% | 1007.6 hPa | 0 mm | 0.89 m/s, 296° | 7 W/m² | - |
| 1778027108 | 12.22° C | 48% | 1007.8 hPa | 0 mm | 0.89 m/s, 296° | 7 W/m² | - |
| 1778026807 | 12.22° C | 48% | 1007.8 hPa | 0 mm | 0.89 m/s, 296° | 9 W/m² | - |
| 1778026508 | 12.22° C | 48% | 1007.8 hPa | 0 mm | 0.89 m/s, 296° | 11 W/m² | - |
| 1778026207 | 12.22° C | 46% | 1007.8 hPa | 0 mm | 0.89 m/s, 296° | 14 W/m² | - |
| 1778025909 | 12.22° C | 46% | 1007.8 hPa | 0 mm | 0.45 m/s, 296° | 14 W/m² | - |
| 1778025609 | 12.22° C | 48% | 1007.8 hPa | 0 mm | 0.89 m/s, 298° | 19 W/m² | - |
| 1778025309 | 12.78° C | 46% | 1007.6 hPa | 0 mm | 0.89 m/s, 294° | 28 W/m² | - |
| 1778025008 | 12.78° C | 45% | 1007.6 hPa | 0 mm | 0.89 m/s, 300° | 56 W/m² | - |
| 1778024708 | 12.78° C | 43% | 1007.6 hPa | 0 mm | 1.34 m/s, 313° | 76 W/m² | - |
| 1778024408 | 12.78° C | 43% | 1007.6 hPa | 0 mm | 1.34 m/s, 294° | 76 W/m² | - |
| 1778024108 | 12.78° C | 43% | 1007.7 hPa | 0 mm | 0.89 m/s, 304° | 86 W/m² | - |
| 1778023808 | 12.78° C | 43% | 1007.7 hPa | 0 mm | 1.34 m/s, 320° | 81 W/m² | - |
* Rain latest hour (hover to see other rain measurements)
** Current wind speed in m/s (hover to see current wind gust speed)